Time,TemperatureF,DewpointF,PressureIn,WindDirection,WindDirectionDegrees,WindSpeedMPH,WindSpeedGustMPH,Humidity,HourlyPrecipIn,Conditions,Clouds,dailyrainin,SoftwareType,DateUTC
2013-03-21 00:29:00,39.1,31.5,29.90,SW,229,0.0,3.0,74,0.00,CLR,,0.00,WeatherDisplay:10.37,2013-03-21 05:29:00,
2013-03-21 00:59:00,38.2,31.0,29.89,SW,229,0.0,3.0,75,0.00,CLR,,0.00,WeatherDisplay:10.37,2013-03-21 05:59:00,
2013-03-21 01:30:00,36.8,29.0,29.86,SW,229,0.0,4.0,73,0.00,CLR,,0.00,WeatherDisplay:10.37,2013-03-21 06:30:00,
2013-03-21 01:59:00,42.4,28.6,29.83,West,280,1.0,7.0,58,0.00,CLR,,0.00,WeatherDisplay:10.37,2013-03-21 06:59:00,
2013-03-21 02:30:00,56.4,26.9,29.71,WNW,282,5.0,8.0,32,0.00,CLR,,0.00,WeatherDisplay:10.37,2013-03-21 07:30:00,
2013-03-21 03:00:00,57.5,24.6,29.69,West,275,2.0,13.0,28,0.00,CLR,,0.00,WeatherDisplay:10.37,2013-03-21 08:00:00,
2013-03-21 03:30:00,58.6,25.6,29.67,WNW,288,1.0,12.0,28,0.00,CLR,,0.00,WeatherDisplay:10.37,2013-03-21 08:30:00,
2013-03-21 04:00:00,57.6,24.7,29.65,West,279,2.0,10.0,28,0.00,CLR,,0.00,WeatherDisplay:10.37,2013-03-21 09:00:00,
2013-03-21 04:30:00,57.0,24.2,29.64,West,278,2.0,7.0,28,0.00,CLR,,0.00,WeatherDisplay:10.37,2013-03-21 09:30:00,
2013-03-21 05:00:00,51.7,24.9,29.66,West,265,0.0,5.0,35,0.00,CLR,,0.00,WeatherDisplay:10.37,2013-03-21 10:00:00,
2013-03-21 05:30:00,54.1,23.3,29.63,WSW,252,2.0,6.0,30,0.00,CLR,,0.00,WeatherDisplay:10.37,2013-03-21 10:30:00,
2013-03-21 06:00:00,58.3,25.3,29.59,WSW,247,1.0,10.0,28,0.00,CLR,,0.00,WeatherDisplay:10.37,2013-03-21 11:00:00,
2013-03-21 06:30:00,57.5,24.6,29.60,West,272,1.0,7.0,28,0.00,CLR,,0.00,WeatherDisplay:10.37,2013-03-21 11:30:00,
2013-03-21 07:00:00,58.6,25.6,29.60,WSW,251,5.0,13.0,28,0.00,CLR,,0.00,WeatherDisplay:10.37,2013-03-21 12:00:00,
2013-03-21 07:30:00,57.5,25.5,29.62,West,278,3.0,10.0,29,0.00,CLR,,0.00,WeatherDisplay:10.37,2013-03-21 12:30:00,
2013-03-21 08:00:00,53.9,26.1,29.65,West,278,0.0,7.0,34,0.00,CLR,,0.00,WeatherDisplay:10.37,2013-03-21 13:00:00,
2013-03-21 08:30:00,52.0,25.8,29.67,West,278,1.0,5.0,36,0.00,CLR,,0.00,WeatherDisplay:10.37,2013-03-21 13:30:00,
2013-03-21 09:00:00,60.2,24.2,29.63,West,259,3.0,12.0,25,0.00,CLR,,0.00,WeatherDisplay:10.37,2013-03-21 14:00:00,
2013-03-21 09:30:00,62.9,21.2,29.66,SW,217,6.0,14.0,20,0.00,CLR,,0.00,WeatherDisplay:10.37,2013-03-21 14:30:00,
2013-03-21 10:00:00,63.9,22.0,29.66,WSW,245,7.0,18.0,20,0.00,CLR,,0.00,WeatherDisplay:10.37,2013-03-21 15:00:00,
2013-03-21 10:30:00,65.4,22.0,29.66,WSW,250,3.0,26.0,19,0.00,CLR,,0.00,WeatherDisplay:10.37,2013-03-21 15:30:00,
2013-03-21 11:00:00,66.8,21.9,29.65,SW,236,15.0,25.0,18,0.00,CLR,,0.00,WeatherDisplay:10.37,2013-03-21 16:00:00,
2013-03-21 11:30:00,67.0,22.1,29.65,WSW,249,16.0,29.0,18,0.00,CLR,,0.00,WeatherDisplay:10.37,2013-03-21 16:30:00,
2013-03-21 12:00:00,68.1,23.0,29.64,SW,234,12.0,30.0,18,0.00,CLR,,0.00,WeatherDisplay:10.37,2013-03-21 17:00:00,
2013-03-21 12:30:00,69.4,21.2,29.63,SW,228,13.0,29.0,16,0.00,CLR,,0.00,WeatherDisplay:10.37,2013-03-21 17:30:00,
2013-03-21 13:00:00,69.8,20.0,29.64,WSW,238,12.0,27.0,15,0.00,CLR,,0.00,WeatherDisplay:10.37,2013-03-21 18:00:00,
2013-03-21 13:30:00,70.7,20.8,29.52,West,274,6.0,31.0,15,0.00,CLR,,0.00,WeatherDisplay:10.37,2013-03-21 18:30:00,
2013-03-21 14:00:00,71.4,19.6,29.50,WSW,242,15.0,26.0,14,0.00,CLR,,0.00,WeatherDisplay:10.37,2013-03-21 19:00:00,
2013-03-21 14:30:00,72.5,20.5,29.46,WSW,246,8.0,21.0,14,0.00,CLR,,0.00,WeatherDisplay:10.37,2013-03-21 19:30:00,
2013-03-21 15:01:00,71.8,21.6,29.44,WSW,250,6.0,27.0,15,0.00,CLR,,0.00,WeatherDisplay:10.37,2013-03-21 20:01:00,
2013-03-21 15:30:00,72.7,20.7,29.43,WSW,237,6.0,28.0,14,0.00,CLR,,0.00,WeatherDisplay:10.37,2013-03-21 20:30:00,
2013-03-21 16:00:00,72.8,19.0,29.43,WSW,243,10.0,21.0,13,0.00,CLR,,0.00,WeatherDisplay:10.37,2013-03-21 21:00:00,
2013-03-21 16:30:00,73.3,15.5,29.47,SW,227,12.0,35.0,11,0.00,CLR,,0.00,WeatherDisplay:10.37,2013-03-21 21:30:00,
2013-03-21 17:00:00,72.7,15.1,29.47,SW,227,9.0,33.0,11,0.00,CLR,,0.00,WeatherDisplay:10.37,2013-03-21 22:00:00,
2013-03-21 17:30:00,71.9,14.5,29.44,West,259,9.0,24.0,11,0.00,CLR,,0.00,WeatherDisplay:10.37,2013-03-21 22:30:00,
2013-03-21 18:00:00,70.6,17.3,29.45,West,259,5.0,20.0,13,0.00,CLR,,0.00,WeatherDisplay:10.37,2013-03-21 23:00:00,
2013-03-21 18:30:00,69.4,18.0,29.46,WNW,289,6.0,21.0,14,0.00,CLR,,0.00,WeatherDisplay:10.37,2013-03-21 23:30:00,
2013-03-21 19:00:00,68.6,17.4,29.46,NW,305,6.0,18.0,14,0.00,CLR,,0.00,WeatherDisplay:10.37,2013-03-22 00:00:00,
2013-03-21 19:30:00,67.1,16.3,29.54,West,271,1.0,20.0,14,0.00,CLR,,0.00,WeatherDisplay:10.37,2013-03-22 00:30:00,
2013-03-21 20:00:00,66.0,15.4,29.54,WNW,296,3.0,18.0,14,0.00,CLR,,0.00,WeatherDisplay:10.37,2013-03-22 01:00:00,
2013-03-21 20:30:00,65.0,16.2,29.50,SW,235,2.0,14.0,15,0.00,CLR,,0.00,WeatherDisplay:10.37,2013-03-22 01:30:00,
2013-03-21 20:59:00,64.3,15.6,29.50,SSW,211,6.0,12.0,15,0.00,CLR,,0.00,WeatherDisplay:10.37,2013-03-22 01:59:00,
2013-03-21 21:30:00,63.4,14.9,29.50,SW,216,2.0,12.0,15,0.00,CLR,,0.00,WeatherDisplay:10.37,2013-03-22 02:30:00,
2013-03-21 22:00:00,62.4,15.6,29.52,ESE,123,2.0,12.0,16,0.00,CLR,,0.00,WeatherDisplay:10.37,2013-03-22 03:00:00,
2013-03-21 22:30:00,60.9,14.3,29.52,SW,223,1.0,7.0,16,0.00,CLR,,0.00,WeatherDisplay:10.37,2013-03-22 03:30:00,
2013-03-21 23:30:00,60.2,13.8,29.53,SSW,209,2.0,12.0,16,0.00,CLR,,0.00,WeatherDisplay:10.37,2013-03-22 04:30:00,